FW9380 Weather Reports


Display with metric or nautical units.
time (UTC)temp
F
wind
direction
speed
MPH
gust
MPH
rain 1hr
in
rain 24hr
in
rain mn
in
humidity
%
barometer
mb
20210921064808 78 197 0.0 0.0 0.00 0.00 0.00 95 1014.7
20210921064308 78 197 0.0 0.0 0.00 0.00 0.00 95 1014.7
20210921063807 78 197 0.0 0.0 0.00 0.00 0.00 95 1014.6
20210921063302 78 197 0.0 0.0 0.00 0.00 0.00 95 1014.6
20210921062802 78 197 0.0 0.0 0.00 0.00 0.00 94 1014.5
20210921062301 78 197 0.0 0.0 0.00 0.00 0.00 94 1014.8
20210921061758 78 197 1.0 1.0 0.00 0.00 0.00 95 1014.7
20210921061258 78 182 0.0 0.0 0.00 0.00 0.00 95 1014.7
20210921060755 78 182 0.0 0.0 0.00 0.00 0.00 95 1015.0
20210921060253 78 182 0.0 0.0 0.00 0.00 0.00 95 1014.9
20210921055752 78 182 0.0 0.0 0.00 0.00 0.00 94 1014.8
20210921055250 78 182 0.0 0.0 0.00 0.00 0.00 94 1014.8
20210921054748 78 182 0.0 0.0 0.00 0.00 0.00 95 1014.8
20210921054246 78 182 0.0 0.0 0.00 0.00 0.00 94 1015.1
20210921053745 78 182 0.0 0.0 0.00 0.00 0.00 94 1015.0
20210921053243 78 182 0.0 0.0 0.00 0.00 0.00 94 1015.0
20210921052741 79 182 0.0 0.0 0.00 0.00 0.00 94 1015.2
20210921052241 79 182 0.0 0.0 0.00 0.00 0.00 93 1015.3
20210921051739 79 182 0.0 0.0 0.00 0.00 0.00 93 1015.1
20210921051237 79 182 0.0 0.0 0.00 0.00 0.00 93 1015.3
20210921050735 79 182 0.0 0.0 0.00 0.00 0.00 93 1015.2
20210921050233 79 183 0.0 1.0 0.00 0.00 0.00 93 1015.3
20210921045727 79 182 0.0 0.0 0.00 0.19 0.19 93 1015.3
20210921045224 79 184 0.0 0.0 0.00 0.19 0.19 93 1015.3
20210921044725 79 188 0.0 0.0 0.00 0.19 0.19 93 1015.4
20210921044223 80 202 0.0 0.0 0.00 0.19 0.19 92 1015.3
20210921043722 80 183 0.0 0.0 0.00 0.19 0.19 92 1015.6
20210921043220 80 215 0.0 0.0 0.00 0.19 0.19 92 1015.7
20210921042720 80 216 0.0 0.0 0.00 0.19 0.19 92 1015.6
20210921042219 80 214 0.0 0.0 0.00 0.19 0.19 93 1015.5
20210921041718 80 190 0.0 0.0 0.00 0.19 0.19 93 1015.6
20210921041217 80 209 0.0 0.0 0.00 0.19 0.19 93 1015.5
20210921040715 80 190 0.0 0.0 0.00 0.19 0.19 93 1015.7
20210921040214 80 209 0.0 0.0 0.00 0.19 0.19 92 1015.8
20210921035712 80 211 0.0 0.0 0.00 0.19 0.19 93 1015.7
20210921035211 80 156 0.0 0.0 0.00 0.19 0.19 93 1015.5
20210921034709 80 172 0.0 0.0 0.00 0.19 0.19 92 1015.6
20210921034207 80 189 0.0 0.0 0.00 0.19 0.19 92 1015.6
20210921033707 80 211 0.0 1.0 0.00 0.19 0.19 92 1015.5
20210921033207 80 207 1.0 1.0 0.00 0.19 0.19 92 1015.5
20210921032704 80 213 0.0 0.0 0.00 0.19 0.19 91 1015.6
20210921032202 80 209 0.0 0.0 0.00 0.19 0.19 91 1015.6
20210921031703 80 199 1.0 1.0 0.00 0.19 0.19 91 1015.3
20210921031201 80 227 0.0 0.0 0.00 0.19 0.19 91 1015.5
20210921030700 80 202 0.0 0.0 0.00 0.19 0.19 92 1015.3
20210921030159 80 181 1.0 1.0 0.00 0.19 0.19 91 1015.4
20210921025657 80 192 0.0 0.0 0.00 0.19 0.19 90 1015.1
20210921025154 80 150 0.0 1.0 0.00 0.19 0.19 90 1015.1
20210921024651 80 140 0.0 1.0 0.00 0.19 0.19 90 1015.2
20210921024151 80 201 0.0 0.0 0.00 0.19 0.19 90 1015.3
20210921023649 80 237 1.0 1.0 0.00 0.19 0.19 90 1015.2
20210921023147 80 195 0.0 1.0 0.00 0.19 0.19 91 1015.2
20210921022646 80 180 0.0 0.0 0.00 0.19 0.19 92 1015.3
20210921022145 80 180 0.0 0.0 0.00 0.19 0.19 91 1015.2
20210921021644 80 160 1.0 1.0 0.00 0.19 0.19 91 1015.1
20210921021141 80 190 0.0 1.0 0.00 0.19 0.19 92 1015.0
20210921020639 80 186 0.0 0.0 0.00 0.19 0.19 91 1014.8
20210921020136 80 183 0.0 1.0 0.00 0.19 0.19 91 1014.9
20210921015636 80 180 0.0 0.0 0.00 0.19 0.19 91 1014.8
20210921015134 80 205 0.0 1.0 0.00 0.19 0.19 91 1014.8
20210921014629 80 229 0.0 0.0 0.00 0.19 0.19 91 1014.7
20210921014129 81 172 1.0 1.0 0.00 0.19 0.19 91 1014.7
20210921013629 81 185 0.0 0.0 0.00 0.19 0.19 90 1014.7
20210921013126 81 188 1.0 1.0 0.00 0.19 0.19 91 1014.4
20210921012626 81 179 0.0 0.0 0.00 0.19 0.19 91 1014.4
20210921012125 81 195 0.0 0.0 0.00 0.19 0.19 91 1014.4
20210921011622 81 188 1.0 1.0 0.00 0.19 0.19 91 1014.2
20210921011121 81 189 1.0 2.0 0.00 0.19 0.19 91 1014.1
20210921010620 81 233 0.0 0.0 0.00 0.19 0.19 91 1013.8
20210921010119 81 246 0.0 0.0 0.00 0.19 0.19 90 1014.1
20210921005618 81 179 0.0 0.0 0.00 0.19 0.19 90 1014.0
20210921005116 81 178 0.0 0.0 0.00 0.19 0.19 89 1013.9
20210921004613 81 195 0.0 1.0 0.00 0.19 0.19 90 1013.8
20210921004110 81 195 0.0 0.0 0.00 0.19 0.19 90 1013.7
20210921003609 81 195 0.0 0.0 0.00 0.19 0.19 89 1013.8
20210921003109 81 192 0.0 0.0 0.00 0.19 0.19 90 1013.9
20210921002607 81 182 0.0 0.0 0.00 0.19 0.19 90 1013.6
20210921002104 81 182 0.0 0.0 0.00 0.19 0.19 89 1013.7
20210921001604 80 223 0.0 0.0 0.00 0.19 0.19 89 1013.5
20210921001100 80 219 1.0 1.0 0.00 0.19 0.19 88 1013.6
20210921000601 81 194 0.0 1.0 0.00 0.19 0.19 89 1013.6
20210921000100 81 193 0.0 0.0 0.00 0.19 0.19 89 1013.6
20210920235557 81 193 0.0 0.0 0.00 0.19 0.19 88 1013.6
20210920235056 81 197 1.0 2.0 0.00 0.19 0.19 88 1013.6
20210920234555 81 186 1.0 1.0 0.00 0.19 0.19 89 1013.7
20210920234052 81 186 1.0 1.0 0.00 0.19 0.19 89 1013.9
20210920233550 81 212 1.0 1.0 0.00 0.19 0.19 89 1013.9
20210920233049 82 180 1.0 1.0 0.00 0.19 0.19 89 1013.8
20210920232546 82 161 0.0 1.0 0.00 0.19 0.19 89 1013.9
20210920232044 82 175 1.0 1.0 0.00 0.19 0.19 89 1013.7
20210920231543 82 194 1.0 1.0 0.00 0.19 0.19 88 1013.8
20210920231042 82 279 0.0 1.0 0.00 0.19 0.19 88 1013.9
20210920230541 82 179 0.0 1.0 0.00 0.19 0.19 87 1014.0
20210920230026 82 162 1.0 1.0 0.00 0.19 0.19 87 1013.7
20210920225522 82 195 2.0 2.0 0.00 0.19 0.19 87 1013.8
20210920225019 83 200 0.0 0.0 0.00 0.19 0.19 87 1013.7
20210920224517 83 106 0.0 0.0 0.00 0.19 0.19 85 1013.7
20210920224010 83 141 1.0 1.0 0.00 0.19 0.19 86 1013.7
20210920223509 83 159 1.0 1.0 0.00 0.19 0.19 86 1013.8
20210920223007 83 223 1.0 1.0 0.00 0.19 0.19 86 1013.8
20210920222505 84 131 0.0 0.0 0.00 0.19 0.19 85 1013.7
20210920222005 84 188 1.0 1.0 0.00 0.19 0.19 85 1013.7
20210920221503 84 166 1.0 1.0 0.00 0.19 0.19 84 1013.7
20210920221003 84 179 1.0 1.0 0.00 0.19 0.19 85 1013.6
20210920220503 84 201 1.0 1.0 0.00 0.19 0.19 84 1013.8
20210920220001 84 225 2.0 2.0 0.00 0.19 0.19 84 1013.8
20210920215500 84 191 1.0 1.0 0.00 0.19 0.19 84 1014.1
20210920214959 84 207 1.0 1.0 0.00 0.19 0.19 83 1014.1
20210920214458 84 153 0.0 0.0 0.00 0.19 0.19 84 1014.0
20210920213956 84 199 2.0 2.0 0.00 0.19 0.19 83 1014.0
20210920213455 84 232 1.0 2.0 0.00 0.19 0.19 84 1014.3
20210920212954 84 211 0.0 1.0 0.00 0.19 0.19 84 1014.1
20210920212453 84 202 0.0 0.0 0.00 0.19 0.19 83 1014.2
20210920211950 84 168 0.0 1.0 0.00 0.19 0.19 84 1014.0
20210920211448 85 214 1.0 1.0 0.00 0.19 0.19 82 1014.1
20210920210947 85 202 1.0 1.0 0.00 0.19 0.19 82 1014.2
20210920210446 85 194 1.0 1.0 0.00 0.19 0.19 82 1014.0
20210920205945 85 250 1.0 1.0 0.00 0.19 0.19 81 1014.2
20210920205443 85 193 1.0 1.0 0.00 0.19 0.19 82 1013.9
20210920204943 85 159 1.0 1.0 0.00 0.19 0.19 82 1014.1
20210920204443 85 182 1.0 1.0 0.00 0.19 0.19 82 1014.1
20210920203940 85 242 1.0 2.0 0.00 0.19 0.19 81 1014.0
20210920203440 85 195 1.0 2.0 0.00 0.19 0.19 82 1014.4
20210920202936 86 110 1.0 1.0 0.00 0.19 0.19 80 1014.1
20210920202436 86 268 0.0 0.0 0.00 0.19 0.19 81 1014.2
20210920201937 86 209 1.0 1.0 0.00 0.19 0.19 82 1014.0
20210920201436 86 207 1.0 1.0 0.00 0.19 0.19 80 1014.2
20210920200935 86 222 0.0 1.0 0.00 0.19 0.19 80 1014.1
20210920200434 86 231 1.0 1.0 0.00 0.19 0.19 80 1014.4
20210920195932 86 194 1.0 2.0 0.00 0.19 0.19 80 1014.5
20210920195430 87 149 2.0 2.0 0.00 0.19 0.19 78 1014.4
20210920194930 87 230 1.0 1.0 0.00 0.19 0.19 80 1014.3
20210920194427 87 228 1.0 2.0 0.00 0.19 0.19 79 1014.4
20210920193926 87 194 1.0 2.0 0.00 0.19 0.19 78 1014.4
20210920193422 87 240 2.0 2.0 0.00 0.19 0.19 78 1014.4
20210920192919 87 187 0.0 1.0 0.00 0.19 0.19 78 1014.4
20210920192417 87 299 1.0 1.0 0.00 0.19 0.19 78 1014.7
20210920191915 86 193 1.0 1.0 0.00 0.19 0.19 79 1014.8
20210920191414 86 202 0.0 0.0 0.00 0.19 0.19 81 1014.5
20210920190913 86 217 2.0 2.0 0.00 0.19 0.19 80 1014.8
20210920190412 87 166 1.0 1.0 0.00 0.19 0.19 80 1014.6
20210920185910 86 248 1.0 2.0 0.00 0.19 0.19 80 1014.5
20210920185407 86 180 2.0 2.0 0.00 0.19 0.19 82 1014.4
20210920184906 85 223 0.0 1.0 0.00 0.19 0.19 82 1014.5
20210920184405 86 165 1.0 1.0 0.00 0.19 0.19 79 1015.0
20210920183904 87 211 0.0 0.0 0.00 0.19 0.19 79 1014.7
20210920183403 86 209 1.0 1.0 0.00 0.19 0.19 79 1014.7
20210920182903 86 246 2.0 3.0 0.00 0.19 0.19 80 1015.0
20210920182403 86 164 1.0 2.0 0.00 0.19 0.19 81 1014.7
20210920181901 86 221 2.0 2.0 0.00 0.19 0.19 80 1015.0
20210920181359 87 159 1.0 1.0 0.00 0.19 0.19 78 1014.9
20210920180858 86 212 1.0 2.0 0.00 0.19 0.19 79 1015.2
20210920180354 86 253 2.0 2.0 0.00 0.19 0.19 79 1015.1
20210920175854 86 222 1.0 1.0 0.00 0.19 0.19 78 1015.4
20210920175352 87 211 2.0 2.0 0.00 0.19 0.19 79 1015.1
20210920174851 87 193 0.0 1.0 0.00 0.19 0.19 78 1015.3
20210920174350 87 191 1.0 1.0 0.00 0.19 0.19 79 1015.6
20210920173849 86 184 0.0 1.0 0.00 0.19 0.19 79 1015.4
20210920173347 86 240 1.0 2.0 0.00 0.19 0.19 79 1015.5
20210920172847 87 241 2.0 2.0 0.00 0.19 0.19 79 1015.6
20210920172346 86 152 0.0 0.0 0.00 0.19 0.19 81 1015.6
20210920171845 86 109 1.0 2.0 0.00 0.19 0.19 80 1015.4
20210920171344 87 203 1.0 1.0 0.00 0.19 0.19 78 1015.5
20210920170843 87 181 2.0 2.0 0.00 0.19 0.19 79 1015.7
20210920170342 86 211 0.0 1.0 0.00 0.19 0.19 80 1015.4
20210920165839 86 186 1.0 1.0 0.00 0.19 0.19 77 1015.7
20210920165337 86 189 1.0 1.0 0.00 0.19 0.19 79 1015.6
20210920164834 86 200 1.0 2.0 0.00 0.19 0.19 78 1015.6
20210920164332 86 160 1.0 1.0 0.00 0.19 0.19 79 1015.6
20210920163832 86 183 1.0 1.0 0.00 0.19 0.19 79 1015.8
20210920163332 86 210 1.0 1.0 0.00 0.19 0.19 78 1015.5
20210920162831 86 155 1.0 2.0 0.00 0.19 0.19 78 1015.4
20210920162331 86 233 2.0 2.0 0.00 0.19 0.19 79 1015.3
20210920161830 86 206 1.0 1.0 0.00 0.19 0.19 81 1015.4
20210920161325 86 236 1.0 2.0 0.00 0.19 0.19 81 1015.3
20210920160824 86 106 0.0 1.0 0.00 0.19 0.19 79 1015.5
20210920160323 86 185 0.0 1.0 0.00 0.19 0.19 79 1015.5
20210920155823 86 265 1.0 1.0 0.00 0.19 0.19 81 1015.4
20210920155322 86 205 0.0 1.0 0.00 0.19 0.19 81 1015.7
20210920154818 85 149 0.0 0.0 0.00 0.19 0.19 82 1015.6
20210920154314 86 246 1.0 2.0 0.00 0.19 0.19 81 1015.4
20210920153811 86 191 0.0 0.0 0.00 0.19 0.19 79 1015.4
20210920153310 85 181 0.0 0.0 0.00 0.19 0.19 80 1015.3
20210920152809 84 146 0.0 0.0 0.00 0.19 0.19 84 1015.4
20210920152308 85 173 0.0 0.0 0.00 0.19 0.19 82 1015.4
20210920151807 84 319 0.0 1.0 0.00 0.19 0.19 86 1015.5
20210920151305 85 266 0.0 1.0 0.00 0.19 0.19 85 1015.5
20210920150803 84 74 1.0 1.0 0.00 0.19 0.19 87 1015.4
20210920150302 82 321 1.0 1.0 0.00 0.19 0.19 91 1015.3
20210920145802 82 83 1.0 1.0 0.00 0.19 0.19 89 1015.4
20210920145301 81 96 1.0 1.0 0.00 0.19 0.19 90 1015.2
20210920144800 82 302 1.0 1.0 0.00 0.19 0.19 91 1015.3
20210920144258 82 330 1.0 1.0 0.00 0.19 0.19 93 1015.2
20210920143757 81 350 0.0 1.0 0.00 0.19 0.19 93 1015.1
20210920143255 81 74 1.0 2.0 0.00 0.19 0.19 93 1015.0
20210920142753 81 336 1.0 1.0 0.00 0.19 0.19 94 1014.9
20210920142252 80 97 0.0 0.0 0.00 0.19 0.19 95 1015.0
20210920141751 80 270 0.0 0.0 0.00 0.19 0.19 97 1014.9
20210920141249 79 262 0.0 0.0 0.00 0.19 0.19 98 1014.7
20210920140747 79 87 0.0 0.0 0.00 0.19 0.19 98 1014.9
20210920140246 79 70 0.0 0.0 0.00 0.19 0.19 98 1015.0
20210920135743 78 47 0.0 1.0 0.00 0.19 0.19 99 1014.7
20210920135242 78 99 0.0 0.0 0.00 0.19 0.19 99 1015.1
20210920134734 78 102 0.0 0.0 0.00 0.19 0.19 99 1015.0
20210920134233 78 101 0.0 0.0 0.00 0.19 0.19 99 1014.8
20210920133729 77 71 0.0 0.0 0.00 0.19 0.19 99 1014.8
20210920133229 77 71 0.0 0.0 0.00 0.19 0.19 99 1015.0
20210920132726 77 71 0.0 0.0 0.00 0.19 0.19 99 1014.7
20210920132223 78 73 0.0 0.0 0.00 0.19 0.19 99 1014.9
20210920131721 77 72 0.0 0.0 0.11 0.19 0.19 99 1014.8
20210920131217 78 69 0.0 0.0 0.42 0.19 0.19 99 1014.8
20210920130712 78 72 0.0 0.0 0.37 0.17 0.17 99 1014.7
20210920130212 77 2 0.0 1.0 0.07 0.12 0.12 99 1014.8
20210920125710 77 23 1.0 1.0 0.00 0.11 0.11 99 1014.7
20210920125210 78 15 0.0 0.0 0.00 0.11 0.11 99 1014.9
20210920124709 77 71 0.0 0.0 0.00 0.11 0.11 99 1014.8
20210920124207 77 82 0.0 0.0 0.00 0.11 0.11 99 1014.6
20210920123707 77 94 0.0 0.0 0.00 0.11 0.11 99 1014.5
20210920123206 76 94 0.0 0.0 0.00 0.11 0.11 99 1014.6
20210920122703 76 94 0.0 0.0 0.00 0.11 0.11 99 1014.4
20210920122202 76 94 0.0 0.0 0.00 0.11 0.11 99 1014.4
20210920121701 76 69 0.0 0.0 0.00 0.11 0.11 99 1014.5
20210920121201 76 69 0.0 0.0 0.00 0.11 0.11 99 1014.2
20210920120659 75 69 0.0 0.0 0.00 0.11 0.11 99 1014.3
20210920120158 75 75 0.0 0.0 0.00 0.11 0.11 99 1014.2
20210920115657 75 103 0.0 0.0 0.00 0.11 0.11 99 1014.3
20210920115155 75 94 0.0 0.0 0.00 0.11 0.11 99 1014.2
20210920114653 75 94 0.0 0.0 0.00 0.11 0.11 99 1014.3
20210920114152 75 94 0.0 0.0 0.00 0.11 0.11 99 1014.2
20210920113652 75 94 0.0 0.0 0.00 0.11 0.11 99 1014.2
20210920113151 75 94 0.0 0.0 0.00 0.11 0.11 99 1014.1
20210920112647 75 94 0.0 0.0 0.00 0.11 0.11 99 1014.1
20210920112116 75 143 0.0 0.0 0.00 0.11 0.11 99 1014.1
20210920111613 75 143 0.0 0.0 0.00 0.11 0.11 99 1014.0
20210920111112 75 143 0.0 0.0 0.00 0.11 0.11 99 1014.0
20210920110610 75 143 0.0 0.0 0.16 0.11 0.11 99 1013.9
20210920110108 75 167 0.0 0.0 0.35 0.11 0.11 99 1013.9
20210920105548 75 168 0.0 0.0 0.28 0.09 0.09 99 1013.7
20210920105045 76 204 0.0 1.0 0.04 0.05 0.05 99 1014.1
20210920104544 76 215 0.0 0.0 0.11 0.04 0.04 99 1013.9
20210920104045 76 188 0.0 1.0 0.18 0.04 0.04 99 1014.0
20210920103544 77 193 0.0 1.0 0.11 0.03 0.03 99 1013.9
20210920103042 77 83 0.0 0.0 0.07 0.01 0.01 99 1013.8
20210920102541 76 83 0.0 0.0 0.07 0.01 0.01 99 1013.7
20210920102040 76 83 0.0 0.0 0.00 0.00 0.00 99 1013.6
20210920101539 76 83 0.0 0.0 0.00 0.00 0.00 99 1013.8
20210920101039 76 83 0.0 0.0 0.00 0.00 0.00 99 1013.6
20210920100535 76 83 0.0 0.0 0.00 0.00 0.00 99 1013.6
20210920100034 76 83 0.0 0.0 0.00 0.00 0.00 99 1013.4
20210920095533 76 83 0.0 0.0 0.00 0.00 0.00 99 1013.5
20210920095033 76 83 0.0 0.0 0.00 0.00 0.00 99 1013.4
20210920094527 76 83 0.0 0.0 0.00 0.00 0.00 99 1013.4
20210920094026 76 83 0.0 0.0 0.00 0.00 0.00 99 1013.4
20210920093527 76 83 0.0 0.0 0.00 0.00 0.00 99 1013.4
20210920093011 76 83 0.0 0.0 0.00 0.00 0.00 99 1013.1
20210920092510 76 83 0.0 0.0 0.00 0.00 0.00 99 1013.3
20210920092005 76 83 0.0 0.0 0.00 0.00 0.00 99 1013.2
20210920091502 76 83 0.0 0.0 0.00 0.00 0.00 99 1013.3
20210920090957 76 126 0.0 0.0 0.00 0.00 0.00 99 1013.4
20210920090457 76 126 0.0 0.0 0.00 0.00 0.00 99 1013.4
20210920085956 76 126 0.0 0.0 0.00 0.00 0.00 99 1013.2
20210920085456 76 126 0.0 0.0 0.00 0.00 0.00 99 1013.3
20210920084954 75 126 0.0 0.0 0.00 0.00 0.00 99 1013.3
20210920084452 76 126 0.0 0.0 0.00 0.00 0.00 99 1013.2
20210920083950 76 126 0.0 0.0 0.00 0.00 0.00 99 1013.4
20210920083450 76 126 0.0 0.0 0.00 0.00 0.00 99 1013.2
20210920082948 76 126 0.0 0.0 0.00 0.00 0.00 99 1013.2
20210920082447 76 126 0.0 0.0 0.00 0.00 0.00 99 1013.3
20210920081946 76 126 0.0 0.0 0.00 0.00 0.00 99 1013.4
20210920081443 76 126 0.0 0.0 0.00 0.00 0.00 99 1013.3
20210920080941 76 126 0.0 0.0 0.00 0.00 0.00 99 1013.3
20210920080436 76 126 0.0 0.0 0.00 0.00 0.00 99 1013.5
20210920075935 76 126 0.0 0.0 0.00 0.00 0.00 99 1013.3
20210920075434 76 126 0.0 0.0 0.00 0.00 0.00 99 1013.3
20210920074933 76 126 0.0 0.0 0.00 0.00 0.00 99 1013.7
20210920074432 76 126 0.0 0.0 0.00 0.00 0.00 99 1013.6
20210920073931 76 126 0.0 0.0 0.00 0.00 0.00 99 1013.4
20210920073429 76 126 0.0 0.0 0.00 0.00 0.00 99 1013.4
20210920072928 76 126 0.0 0.0 0.00 0.00 0.00 99 1013.4
20210920072428 76 126 0.0 0.0 0.00 0.00 0.00 99 1013.6
20210920071927 76 126 0.0 0.0 0.00 0.00 0.00 99 1013.6
20210920071425 76 126 0.0 0.0 0.00 0.00 0.00 99 1013.7
20210920070924 76 126 0.0 0.0 0.00 0.00 0.00 99 1013.5
20210920070423 76 126 0.0 0.0 0.00 0.00 0.00 99 1013.6
20210920065922 76 126 0.0 0.0 0.00 0.00 0.00 99 1013.6
20210920065420 76 126 0.0 0.0 0.00 0.00 0.00 99 1013.7